| time (UTC) | temp F | wind direction | speed MPH | gust MPH | rain 1hr in | rain 24hr in | rain mn in | humidity % | barometer mb |
| 20260506044845 | 48 | 137 | 0.0 | 0.0 | 0.07 | 0.06 | 0.06 | 99 | 1012.1 |
| 20260506044343 | 48 | 158 | 0.0 | 0.0 | 0.00 | 0.05 | 0.05 | 99 | 1012.1 |
| 20260506043839 | 48 | 154 | 0.0 | 0.0 | 0.00 | 0.05 | 0.05 | 99 | 1012.1 |
| 20260506043337 | 48 | 157 | 0.0 | 0.0 | 0.00 | 0.05 | 0.05 | 99 | 1012.1 |
| 20260506042835 | 48 | 157 | 0.0 | 0.0 | 0.00 | 0.05 | 0.05 | 99 | 1012.1 |
| 20260506042334 | 48 | 157 | 0.0 | 0.0 | 0.05 | 0.05 | 0.05 | 99 | 1012.1 |
| 20260506041832 | 48 | 153 | 0.0 | 0.0 | 0.17 | 0.05 | 0.05 | 99 | 1011.7 |
| 20260506041329 | 48 | 159 | 0.0 | 0.0 | 0.19 | 0.04 | 0.04 | 99 | 1011.7 |
| 20260506040826 | 48 | 171 | 0.0 | 0.0 | 0.12 | 0.02 | 0.02 | 99 | 1012.1 |
| 20260506040323 | 48 | 152 | 0.0 | 0.0 | 0.05 | 0.01 | 0.01 | 99 | 1011.7 |
| 20260506035819 | 48 | 153 | 0.0 | 0.0 | 0.07 | 0.44 | 0.44 | 99 | 1011.7 |
| 20260506035317 | 48 | 153 | 0.0 | 0.0 | 0.26 | 0.44 | 0.44 | 99 | 1011.7 |
| 20260506034814 | 48 | 153 | 0.0 | 0.0 | 0.24 | 0.42 | 0.42 | 99 | 1012.4 |
| 20260506034311 | 48 | 159 | 0.0 | 0.0 | 0.19 | 0.39 | 0.39 | 99 | 1012.1 |
| 20260506033808 | 48 | 155 | 0.0 | 0.0 | 0.17 | 0.38 | 0.38 | 99 | 1012.1 |
| 20260506033305 | 48 | 154 | 0.0 | 0.0 | 0.12 | 0.37 | 0.37 | 99 | 1012.1 |
| 20260506032801 | 48 | 160 | 0.0 | 0.0 | 0.07 | 0.35 | 0.35 | 99 | 1012.1 |
| 20260506032258 | 48 | 149 | 0.0 | 0.0 | 0.12 | 0.35 | 0.35 | 99 | 1011.7 |
| 20260506031755 | 48 | 154 | 0.0 | 0.0 | 0.12 | 0.34 | 0.34 | 99 | 1012.1 |
| 20260506031252 | 48 | 158 | 0.0 | 0.0 | 0.12 | 0.33 | 0.33 | 99 | 1012.1 |
| 20260506030751 | 48 | 157 | 0.0 | 0.0 | 0.12 | 0.32 | 0.32 | 99 | 1012.1 |
| 20260506030248 | 48 | 175 | 0.0 | 0.0 | 0.14 | 0.31 | 0.31 | 99 | 1012.1 |
| 20260506025745 | 48 | 157 | 0.0 | 0.0 | 0.07 | 0.30 | 0.30 | 99 | 1012.4 |
| 20260506025241 | 48 | 155 | 0.0 | 0.0 | 0.00 | 0.29 | 0.29 | 99 | 1012.4 |
| 20260506024738 | 49 | 156 | 0.0 | 0.0 | 0.00 | 0.29 | 0.29 | 99 | 1012.7 |
| 20260506024235 | 48 | 158 | 0.0 | 0.0 | 0.00 | 0.29 | 0.29 | 99 | 1012.4 |
| 20260506023731 | 48 | 154 | 0.0 | 0.0 | 0.00 | 0.29 | 0.29 | 99 | 1012.7 |
| 20260506023228 | 48 | 161 | 0.0 | 0.0 | 0.05 | 0.29 | 0.29 | 99 | 1012.1 |
| 20260506022725 | 48 | 155 | 0.0 | 0.0 | 0.07 | 0.28 | 0.28 | 99 | 1012.4 |
| 20260506022223 | 48 | 170 | 0.0 | 0.0 | 0.12 | 0.27 | 0.27 | 99 | 1012.4 |
| 20260506021721 | 48 | 173 | 0.0 | 0.0 | 0.17 | 0.27 | 0.27 | 99 | 1012.4 |
| 20260506021218 | 49 | 157 | 0.0 | 0.0 | 0.05 | 0.25 | 0.25 | 99 | 1012.1 |
| 20260506020714 | 49 | 156 | 0.0 | 0.0 | 0.07 | 0.24 | 0.24 | 99 | 1012.4 |
| 20260506020212 | 49 | 160 | 0.0 | 0.0 | 0.07 | 0.24 | 0.24 | 99 | 1012.1 |
| 20260506015709 | 49 | 155 | 0.0 | 0.0 | 0.05 | 0.23 | 0.23 | 99 | 1012.1 |
| 20260506015207 | 49 | 160 | 0.0 | 0.0 | 0.07 | 0.22 | 0.22 | 99 | 1012.1 |
| 20260506014704 | 49 | 157 | 0.0 | 0.0 | 0.05 | 0.21 | 0.21 | 99 | 1012.1 |
| 20260506014159 | 49 | 167 | 0.0 | 0.0 | 0.07 | 0.20 | 0.20 | 99 | 1011.7 |
| 20260506013658 | 49 | 155 | 0.0 | 0.0 | 0.19 | 0.20 | 0.20 | 99 | 1012.1 |
| 20260506013154 | 49 | 149 | 0.0 | 0.0 | 0.17 | 0.18 | 0.18 | 99 | 1012.4 |
| 20260506012651 | 49 | 152 | 0.0 | 0.0 | 0.19 | 0.17 | 0.17 | 99 | 1012.1 |
| 20260506012147 | 49 | 155 | 0.0 | 0.0 | 0.12 | 0.15 | 0.15 | 99 | 1012.1 |
| 20260506011639 | 49 | 160 | 0.0 | 0.0 | 0.05 | 0.14 | 0.14 | 99 | 1012.1 |
| 20260506011135 | 49 | 176 | 0.0 | 0.0 | 0.07 | 0.13 | 0.13 | 99 | 1012.1 |
| 20260506010634 | 49 | 154 | 0.0 | 0.0 | 0.07 | 0.13 | 0.13 | 99 | 1012.1 |
| 20260506010131 | 49 | 163 | 0.0 | 0.0 | 0.05 | 0.12 | 0.12 | 99 | 1011.7 |
| 20260506005628 | 50 | 211 | 0.0 | 0.0 | 0.05 | 0.12 | 0.12 | 98 | 1011.7 |
| 20260506005124 | 50 | 152 | 0.0 | 0.0 | 0.00 | 0.11 | 0.11 | 98 | 1011.7 |
| 20260506004621 | 50 | 158 | 0.0 | 0.0 | 0.07 | 0.11 | 0.11 | 97 | 1012.1 |
| 20260506004118 | 50 | 208 | 0.0 | 1.0 | 0.19 | 0.11 | 0.11 | 96 | 1011.7 |
| 20260506003614 | 51 | 156 | 0.0 | 0.0 | 0.26 | 0.09 | 0.09 | 95 | 1011.7 |
| 20260506003110 | 51 | 147 | 0.0 | 0.0 | 0.43 | 0.08 | 0.08 | 92 | 1011.7 |
| 20260506002606 | 53 | 261 | 0.0 | 2.0 | 0.19 | 0.04 | 0.04 | 87 | 1011.7 |
| 20260506002102 | 54 | 151 | 0.0 | 0.0 | 0.00 | 0.01 | 0.01 | 81 | 1011.7 |
| 20260506001559 | 54 | 244 | 3.0 | 6.0 | 0.00 | 0.01 | 0.01 | 77 | 1011.1 |
| 20260506001056 | 55 | 276 | 5.0 | 6.0 | 0.00 | 0.01 | 0.01 | 74 | 1011.1 |
| 20260506000553 | 56 | 277 | 3.0 | 6.0 | 0.00 | 0.01 | 0.01 | 72 | 1011.4 |
| 20260506000051 | 56 | 4 | 4.0 | 6.0 | 0.00 | 0.01 | 0.01 | 72 | 1011.1 |
| 20260505235548 | 56 | 161 | 3.0 | 5.0 | 0.00 | 0.01 | 0.01 | 71 | 1010.7 |
| 20260505235045 | 57 | 203 | 2.0 | 3.0 | 0.00 | 0.01 | 0.01 | 71 | 1010.7 |
| 20260505234542 | 57 | 263 | 4.0 | 5.0 | 0.00 | 0.01 | 0.01 | 70 | 1010.4 |
| 20260505234039 | 58 | 266 | 2.0 | 2.0 | 0.00 | 0.01 | 0.01 | 72 | 1010.7 |
| 20260505233536 | 58 | 347 | 5.0 | 9.0 | 0.00 | 0.01 | 0.01 | 72 | 1010.0 |
| 20260505233034 | 58 | 173 | 3.0 | 5.0 | 0.00 | 0.01 | 0.01 | 72 | 1009.7 |
| 20260505232531 | 59 | 287 | 5.0 | 7.0 | 0.00 | 0.01 | 0.01 | 72 | 1010.0 |
| 20260505232029 | 60 | 192 | 2.0 | 2.0 | 0.00 | 0.01 | 0.01 | 71 | 1009.7 |
| 20260505231525 | 60 | 206 | 1.0 | 2.0 | 0.00 | 0.01 | 0.01 | 71 | 1009.4 |
| 20260505231024 | 60 | 322 | 5.0 | 8.0 | 0.00 | 0.01 | 0.01 | 71 | 1009.4 |
| 20260505230521 | 60 | 271 | 5.0 | 7.0 | 0.00 | 0.01 | 0.01 | 71 | 1009.4 |
| 20260505230018 | 60 | 296 | 5.0 | 6.0 | 0.00 | 0.01 | 0.01 | 71 | 1009.0 |
| 20260505225514 | 61 | 247 | 5.0 | 7.0 | 0.00 | 0.01 | 0.01 | 69 | 1009.0 |
| 20260505225010 | 62 | 278 | 2.0 | 3.0 | 0.00 | 0.01 | 0.01 | 68 | 1009.0 |
| 20260505224508 | 62 | 230 | 2.0 | 2.0 | 0.00 | 0.01 | 0.01 | 67 | 1009.0 |
| 20260505224005 | 62 | 246 | 5.0 | 7.0 | 0.00 | 0.01 | 0.01 | 67 | 1008.3 |
| 20260505223502 | 63 | 340 | 3.0 | 3.0 | 0.00 | 0.01 | 0.01 | 68 | 1008.3 |
| 20260505222958 | 63 | 230 | 4.0 | 6.0 | 0.00 | 0.01 | 0.01 | 69 | 1008.3 |
| 20260505222454 | 63 | 246 | 5.0 | 6.0 | 0.00 | 0.01 | 0.01 | 69 | 1008.0 |
| 20260505221950 | 63 | 240 | 2.0 | 3.0 | 0.00 | 0.01 | 0.01 | 71 | 1008.3 |
| 20260505221448 | 64 | 117 | 4.0 | 5.0 | 0.00 | 0.01 | 0.01 | 71 | 1007.7 |
| 20260505220945 | 64 | 212 | 1.0 | 2.0 | 0.00 | 0.01 | 0.01 | 71 | 1007.7 |
| 20260505220441 | 64 | 147 | 2.0 | 3.0 | 0.00 | 0.01 | 0.01 | 72 | 1007.7 |
| 20260505215939 | 64 | 71 | 0.0 | 1.0 | 0.00 | 0.01 | 0.01 | 72 | 1008.0 |
| 20260505215437 | 64 | 157 | 2.0 | 2.0 | 0.00 | 0.01 | 0.01 | 73 | 1007.7 |
| 20260505214935 | 64 | 174 | 1.0 | 2.0 | 0.00 | 0.01 | 0.01 | 73 | 1007.7 |
| 20260505214432 | 64 | 214 | 4.0 | 5.0 | 0.00 | 0.01 | 0.01 | 73 | 1007.7 |
| 20260505213929 | 64 | 341 | 5.0 | 8.0 | 0.00 | 0.01 | 0.01 | 72 | 1008.0 |
| 20260505213427 | 65 | 125 | 3.0 | 5.0 | 0.00 | 0.01 | 0.01 | 73 | 1008.0 |
| 20260505212923 | 65 | 198 | 2.0 | 2.0 | 0.00 | 0.01 | 0.01 | 74 | 1007.7 |
| 20260505212420 | 64 | 237 | 3.0 | 3.0 | 0.00 | 0.01 | 0.01 | 75 | 1007.7 |
| 20260505211916 | 64 | 246 | 2.0 | 2.0 | 0.00 | 0.01 | 0.01 | 75 | 1007.7 |
| 20260505211414 | 65 | 260 | 3.0 | 3.0 | 0.00 | 0.01 | 0.01 | 74 | 1007.3 |
| 20260505210910 | 65 | 232 | 3.0 | 3.0 | 0.00 | 0.01 | 0.01 | 73 | 1007.0 |
| 20260505210408 | 66 | 280 | 3.0 | 5.0 | 0.00 | 0.01 | 0.01 | 72 | 1006.7 |
| 20260505205904 | 67 | 304 | 4.0 | 6.0 | 0.00 | 0.01 | 0.01 | 70 | 1007.0 |
| 20260505205403 | 68 | 152 | 1.0 | 1.0 | 0.00 | 0.01 | 0.01 | 68 | 1007.0 |
| 20260505204859 | 69 | 230 | 1.0 | 2.0 | 0.00 | 0.01 | 0.01 | 68 | 1006.7 |
| 20260505204357 | 71 | 215 | 4.0 | 8.0 | 0.00 | 0.01 | 0.01 | 65 | 1006.7 |
| 20260505203854 | 73 | 202 | 4.0 | 5.0 | 0.00 | 0.01 | 0.01 | 63 | 1006.0 |
| 20260505203350 | 74 | 190 | 3.0 | 3.0 | 0.00 | 0.01 | 0.01 | 65 | 1006.0 |
| 20260505202847 | 73 | 161 | 0.0 | 0.0 | 0.00 | 0.01 | 0.01 | 67 | 1006.0 |
| 20260505202343 | 73 | 174 | 1.0 | 1.0 | 0.00 | 0.01 | 0.01 | 66 | 1006.0 |
| 20260505201840 | 73 | 221 | 1.0 | 2.0 | 0.00 | 0.01 | 0.01 | 65 | 1006.0 |
| 20260505201337 | 73 | 186 | 2.0 | 2.0 | 0.00 | 0.01 | 0.01 | 66 | 1006.3 |
| 20260505200836 | 73 | 177 | 1.0 | 1.0 | 0.00 | 0.01 | 0.01 | 67 | 1006.3 |
| 20260505200332 | 74 | 175 | 2.0 | 3.0 | 0.00 | 0.01 | 0.01 | 66 | 1006.3 |
| 20260505195827 | 75 | 192 | 2.0 | 3.0 | 0.00 | 0.01 | 0.01 | 64 | 1006.3 |
| 20260505195325 | 74 | 198 | 2.0 | 2.0 | 0.00 | 0.01 | 0.01 | 67 | 1006.3 |
| 20260505194822 | 74 | 147 | 2.0 | 3.0 | 0.00 | 0.01 | 0.01 | 67 | 1006.3 |
| 20260505194319 | 73 | 203 | 3.0 | 3.0 | 0.00 | 0.01 | 0.01 | 67 | 1006.3 |
| 20260505193814 | 73 | 161 | 0.0 | 0.0 | 0.00 | 0.01 | 0.01 | 69 | 1006.3 |
| 20260505193312 | 73 | 219 | 1.0 | 3.0 | 0.00 | 0.01 | 0.01 | 69 | 1006.7 |
| 20260505192810 | 73 | 213 | 3.0 | 5.0 | 0.00 | 0.01 | 0.01 | 68 | 1006.0 |
| 20260505192310 | 72 | 182 | 2.0 | 2.0 | 0.00 | 0.01 | 0.01 | 70 | 1006.7 |
| 20260505191806 | 72 | 222 | 5.0 | 7.0 | 0.00 | 0.01 | 0.01 | 69 | 1006.7 |
| 20260505191304 | 71 | 192 | 7.0 | 11.0 | 0.00 | 0.01 | 0.01 | 70 | 1006.3 |
| 20260505190800 | 71 | 153 | 4.0 | 5.0 | 0.00 | 0.01 | 0.01 | 71 | 1006.3 |
| 20260505190255 | 71 | 215 | 6.0 | 10.0 | 0.00 | 0.01 | 0.01 | 71 | 1006.3 |
| 20260505185752 | 70 | 183 | 1.0 | 2.0 | 0.00 | 0.01 | 0.01 | 75 | 1006.7 |
| 20260505185248 | 69 | 151 | 3.0 | 5.0 | 0.00 | 0.01 | 0.01 | 77 | 1006.7 |
| 20260505184744 | 68 | 206 | 3.0 | 3.0 | 0.00 | 0.01 | 0.01 | 79 | 1006.3 |
| 20260505184242 | 65 | 140 | 6.0 | 8.0 | 0.05 | 0.01 | 0.01 | 81 | 1006.7 |
| 20260505183738 | 66 | 206 | 3.0 | 5.0 | 0.05 | 0.01 | 0.01 | 82 | 1006.7 |
| 20260505183236 | 66 | 210 | 3.0 | 3.0 | 0.00 | 0.00 | 0.00 | 79 | 1007.0 |
| 20260505182732 | 67 | 221 | 3.0 | 5.0 | 0.00 | 0.00 | 0.00 | 79 | 1007.0 |
| 20260505182229 | 67 | 191 | 3.0 | 5.0 | 0.00 | 0.00 | 0.00 | 77 | 1007.0 |
| 20260505181725 | 67 | 196 | 3.0 | 3.0 | 0.00 | 0.00 | 0.00 | 79 | 1007.0 |
| 20260505181223 | 67 | 163 | 0.0 | 1.0 | 0.00 | 0.00 | 0.00 | 79 | 1007.0 |
| 20260505180719 | 67 | 253 | 3.0 | 5.0 | 0.00 | 0.00 | 0.00 | 77 | 1006.7 |
| 20260505180216 | 68 | 183 | 5.0 | 7.0 | 0.00 | 0.00 | 0.00 | 76 | 1006.7 |
| 20260505175712 | 69 | 170 | 1.0 | 2.0 | 0.00 | 0.00 | 0.00 | 72 | 1006.3 |
| 20260505175209 | 70 | 204 | 1.0 | 2.0 | 0.00 | 0.00 | 0.00 | 69 | 1006.0 |
| 20260505174705 | 70 | 214 | 4.0 | 8.0 | 0.00 | 0.00 | 0.00 | 69 | 1005.6 |
| 20260505174202 | 70 | 178 | 2.0 | 3.0 | 0.00 | 0.00 | 0.00 | 67 | 1005.6 |
| 20260505173658 | 71 | 244 | 7.0 | 8.0 | 0.00 | 0.00 | 0.00 | 65 | 1005.6 |
| 20260505173155 | 73 | 232 | 5.0 | 6.0 | 0.00 | 0.00 | 0.00 | 61 | 1006.0 |
| 20260505172653 | 73 | 171 | 3.0 | 5.0 | 0.00 | 0.00 | 0.00 | 60 | 1005.6 |
| 20260505172150 | 73 | 208 | 3.0 | 6.0 | 0.00 | 0.00 | 0.00 | 61 | 1005.6 |
| 20260505171649 | 73 | 205 | 2.0 | 5.0 | 0.00 | 0.00 | 0.00 | 59 | 1005.3 |
| 20260505171146 | 73 | 101 | 5.0 | 7.0 | 0.00 | 0.00 | 0.00 | 59 | 1005.3 |
| 20260505170644 | 73 | 157 | 3.0 | 5.0 | 0.00 | 0.00 | 0.00 | 59 | 1005.3 |
| 20260505170141 | 73 | 121 | 3.0 | 5.0 | 0.00 | 0.00 | 0.00 | 59 | 1005.6 |
| 20260505165640 | 73 | 173 | 0.0 | 1.0 | 0.00 | 0.00 | 0.00 | 60 | 1005.6 |
| 20260505165137 | 73 | 267 | 3.0 | 3.0 | 0.00 | 0.00 | 0.00 | 60 | 1005.6 |
| 20260505164632 | 73 | 176 | 5.0 | 7.0 | 0.00 | 0.00 | 0.00 | 59 | 1006.0 |
| 20260505164130 | 73 | 205 | 2.0 | 3.0 | 0.00 | 0.00 | 0.00 | 60 | 1005.3 |
| 20260505163628 | 74 | 195 | 3.0 | 5.0 | 0.00 | 0.00 | 0.00 | 59 | 1005.3 |
| 20260505163125 | 74 | 193 | 3.0 | 3.0 | 0.00 | 0.00 | 0.00 | 59 | 1005.3 |
| 20260505162623 | 74 | 113 | 3.0 | 3.0 | 0.00 | 0.00 | 0.00 | 59 | 1005.6 |
| 20260505162120 | 74 | 163 | 2.0 | 2.0 | 0.00 | 0.00 | 0.00 | 60 | 1005.3 |
| 20260505161617 | 74 | 198 | 3.0 | 5.0 | 0.00 | 0.00 | 0.00 | 60 | 1005.6 |
| 20260505161114 | 74 | 212 | 5.0 | 7.0 | 0.00 | 0.00 | 0.00 | 59 | 1005.3 |
| 20260505160612 | 74 | 160 | 1.0 | 2.0 | 0.00 | 0.00 | 0.00 | 60 | 1005.3 |
| 20260505160109 | 74 | 181 | 3.0 | 3.0 | 0.00 | 0.00 | 0.00 | 61 | 1005.3 |
| 20260505153049 | 73 | 218 | 6.0 | 7.0 | 0.00 | 0.00 | 0.00 | 60 | 1005.6 |
| 20260505152545 | 73 | 146 | 4.0 | 5.0 | 0.00 | 0.00 | 0.00 | 60 | 1005.6 |
| 20260505152041 | 73 | 114 | 4.0 | 7.0 | 0.00 | 0.00 | 0.00 | 60 | 1005.6 |
| 20260505151536 | 74 | 278 | 5.0 | 6.0 | 0.00 | 0.00 | 0.00 | 60 | 1005.6 |
| 20260505151034 | 74 | 141 | 5.0 | 6.0 | 0.00 | 0.00 | 0.00 | 59 | 1005.6 |
| 20260505150530 | 74 | 195 | 6.0 | 8.0 | 0.00 | 0.00 | 0.00 | 58 | 1005.6 |
| 20260505140455 | 73 | 215 | 9.0 | 13.0 | 0.00 | 0.00 | 0.00 | 60 | 1005.6 |
| 20260505124909 | 70 | 181 | 5.0 | 6.0 | 0.00 | 0.00 | 0.00 | 64 | 1005.6 |
| 20260505124406 | 70 | 224 | 3.0 | 3.0 | 0.00 | 0.00 | 0.00 | 64 | 1005.3 |
| 20260505123902 | 70 | 202 | 5.0 | 6.0 | 0.00 | 0.00 | 0.00 | 64 | 1005.6 |
| 20260505123359 | 70 | 176 | 3.0 | 3.0 | 0.00 | 0.00 | 0.00 | 64 | 1005.6 |
| 20260505122854 | 70 | 66 | 5.0 | 9.0 | 0.00 | 0.00 | 0.00 | 65 | 1005.3 |
| 20260505122352 | 69 | 114 | 4.0 | 6.0 | 0.00 | 0.00 | 0.00 | 65 | 1005.0 |
| 20260505121849 | 69 | 214 | 1.0 | 2.0 | 0.00 | 0.00 | 0.00 | 66 | 1005.3 |
| 20260505121346 | 69 | 195 | 4.0 | 6.0 | 0.00 | 0.00 | 0.00 | 66 | 1005.6 |
| 20260505120842 | 69 | 150 | 0.0 | 1.0 | 0.00 | 0.00 | 0.00 | 66 | 1005.3 |
| 20260505120338 | 68 | 153 | 6.0 | 8.0 | 0.00 | 0.00 | 0.00 | 66 | 1005.3 |
| 20260505115837 | 68 | 198 | 3.0 | 5.0 | 0.00 | 0.00 | 0.00 | 67 | 1005.3 |
| 20260505115334 | 67 | 219 | 3.0 | 5.0 | 0.00 | 0.00 | 0.00 | 67 | 1005.3 |
| 20260505114832 | 67 | 214 | 5.0 | 6.0 | 0.00 | 0.00 | 0.00 | 68 | 1005.3 |
| 20260505114328 | 67 | 184 | 7.0 | 9.0 | 0.00 | 0.00 | 0.00 | 68 | 1005.3 |
| 20260505113825 | 66 | 188 | 2.0 | 3.0 | 0.00 | 0.00 | 0.00 | 69 | 1005.3 |
| 20260505113321 | 66 | 74 | 3.0 | 7.0 | 0.00 | 0.00 | 0.00 | 69 | 1005.3 |
| 20260505112817 | 66 | 145 | 3.0 | 3.0 | 0.00 | 0.00 | 0.00 | 69 | 1005.0 |
| 20260505112315 | 66 | 187 | 3.0 | 5.0 | 0.00 | 0.00 | 0.00 | 70 | 1005.3 |
| 20260505111810 | 65 | 201 | 1.0 | 1.0 | 0.00 | 0.00 | 0.00 | 71 | 1005.0 |
| 20260505111306 | 65 | 215 | 4.0 | 6.0 | 0.00 | 0.00 | 0.00 | 71 | 1005.3 |
| 20260505110802 | 65 | 201 | 4.0 | 6.0 | 0.00 | 0.00 | 0.00 | 70 | 1005.0 |
| 20260505110300 | 65 | 198 | 4.0 | 6.0 | 0.00 | 0.00 | 0.00 | 71 | 1005.0 |
| 20260505101734 | 61 | 116 | 0.0 | 0.0 | 0.00 | 0.00 | 0.00 | 81 | 1004.5 |
| 20260505101230 | 60 | 165 | 0.0 | 1.0 | 0.00 | 0.00 | 0.00 | 83 | 1004.5 |
| 20260505100727 | 60 | 144 | 0.0 | 0.0 | 0.00 | 0.00 | 0.00 | 83 | 1005.0 |
| 20260505100224 | 60 | 155 | 0.0 | 1.0 | 0.00 | 0.00 | 0.00 | 83 | 1004.5 |
| 20260505095723 | 60 | 194 | 0.0 | 0.0 | 0.00 | 0.00 | 0.00 | 84 | 1005.0 |
| 20260505095222 | 60 | 142 | 0.0 | 0.0 | 0.00 | 0.00 | 0.00 | 84 | 1005.0 |
| 20260505094717 | 60 | 143 | 1.0 | 1.0 | 0.00 | 0.00 | 0.00 | 83 | 1004.5 |
| 20260505094214 | 60 | 168 | 0.0 | 1.0 | 0.00 | 0.00 | 0.00 | 84 | 1004.5 |
| 20260505093710 | 60 | 170 | 0.0 | 1.0 | 0.00 | 0.00 | 0.00 | 85 | 1005.0 |
| 20260505093208 | 60 | 201 | 3.0 | 3.0 | 0.00 | 0.00 | 0.00 | 86 | 1005.0 |
| 20260505092704 | 60 | 108 | 1.0 | 2.0 | 0.00 | 0.00 | 0.00 | 88 | 1005.0 |
| 20260505092203 | 60 | 154 | 0.0 | 0.0 | 0.00 | 0.00 | 0.00 | 89 | 1005.0 |
| 20260505091700 | 60 | 161 | 0.0 | 0.0 | 0.00 | 0.00 | 0.00 | 88 | 1005.0 |
| 20260505091158 | 61 | 159 | 0.0 | 0.0 | 0.00 | 0.00 | 0.00 | 87 | 1005.0 |
| 20260505090655 | 61 | 154 | 0.0 | 0.0 | 0.00 | 0.00 | 0.00 | 87 | 1005.0 |
| 20260505090153 | 61 | 139 | 0.0 | 0.0 | 0.00 | 0.00 | 0.00 | 87 | 1005.0 |
| 20260505085650 | 61 | 172 | 1.0 | 2.0 | 0.00 | 0.00 | 0.00 | 86 | 1005.0 |
| 20260505085149 | 62 | 170 | 0.0 | 0.0 | 0.00 | 0.00 | 0.00 | 85 | 1005.0 |
| 20260505084646 | 62 | 167 | 0.0 | 1.0 | 0.00 | 0.00 | 0.00 | 85 | 1005.0 |
| 20260505084144 | 62 | 177 | 1.0 | 1.0 | 0.00 | 0.00 | 0.00 | 84 | 1005.3 |
| 20260505083641 | 63 | 199 | 1.0 | 2.0 | 0.00 | 0.00 | 0.00 | 82 | 1005.0 |
| 20260505083137 | 63 | 148 | 1.0 | 2.0 | 0.00 | 0.00 | 0.00 | 79 | 1005.0 |
| 20260505082634 | 63 | 197 | 3.0 | 3.0 | 0.00 | 0.00 | 0.00 | 77 | 1005.0 |
| 20260505082131 | 63 | 199 | 3.0 | 3.0 | 0.00 | 0.00 | 0.00 | 76 | 1005.3 |
| 20260505081626 | 64 | 222 | 4.0 | 5.0 | 0.00 | 0.00 | 0.00 | 75 | 1005.3 |
| 20260505081125 | 65 | 189 | 4.0 | 6.0 | 0.00 | 0.00 | 0.00 | 71 | 1005.3 |
| 20260505080621 | 65 | 217 | 2.0 | 5.0 | 0.00 | 0.00 | 0.00 | 69 | 1005.3 |
| 20260505080117 | 66 | 223 | 2.0 | 2.0 | 0.00 | 0.00 | 0.00 | 66 | 1005.3 |
| 20260505075613 | 66 | 169 | 3.0 | 3.0 | 0.00 | 0.00 | 0.00 | 66 | 1005.3 |
| 20260505075110 | 66 | 123 | 3.0 | 6.0 | 0.00 | 0.00 | 0.00 | 65 | 1005.3 |
| 20260505074607 | 66 | 266 | 5.0 | 8.0 | 0.00 | 0.00 | 0.00 | 66 | 1005.0 |
| 20260505074104 | 65 | 137 | 1.0 | 2.0 | 0.00 | 0.00 | 0.00 | 67 | 1005.3 |
| 20260505073602 | 65 | 191 | 2.0 | 2.0 | 0.00 | 0.00 | 0.00 | 69 | 1005.3 |
| 20260505073100 | 64 | 189 | 1.0 | 2.0 | 0.00 | 0.00 | 0.00 | 69 | 1005.3 |
| 20260505072555 | 64 | 171 | 0.0 | 1.0 | 0.00 | 0.00 | 0.00 | 70 | 1005.0 |
| 20260505072052 | 64 | 150 | 0.0 | 1.0 | 0.00 | 0.00 | 0.00 | 70 | 1005.3 |
| 20260505071547 | 64 | 210 | 4.0 | 6.0 | 0.00 | 0.00 | 0.00 | 70 | 1005.3 |
| 20260505071046 | 64 | 224 | 4.0 | 6.0 | 0.00 | 0.00 | 0.00 | 70 | 1005.3 |
| 20260505070543 | 64 | 173 | 3.0 | 3.0 | 0.00 | 0.00 | 0.00 | 71 | 1005.3 |
| 20260505070039 | 64 | 124 | 1.0 | 1.0 | 0.00 | 0.00 | 0.00 | 71 | 1005.3 |
| 20260505065535 | 64 | 101 | 1.0 | 2.0 | 0.00 | 0.00 | 0.00 | 71 | 1005.0 |
| 20260505065032 | 64 | 180 | 2.0 | 2.0 | 0.00 | 0.00 | 0.00 | 70 | 1005.0 |
| 20260505064528 | 64 | 137 | 3.0 | 5.0 | 0.00 | 0.00 | 0.00 | 70 | 1005.3 |
| 20260505064027 | 65 | 230 | 3.0 | 5.0 | 0.00 | 0.00 | 0.00 | 70 | 1005.0 |
| 20260505063524 | 64 | 143 | 5.0 | 9.0 | 0.00 | 0.00 | 0.00 | 68 | 1005.3 |
| 20260505063020 | 65 | 194 | 3.0 | 3.0 | 0.00 | 0.00 | 0.00 | 67 | 1005.3 |
| 20260505062516 | 65 | 168 | 1.0 | 2.0 | 0.00 | 0.00 | 0.00 | 65 | 1005.0 |
| 20260505062014 | 65 | 176 | 3.0 | 3.0 | 0.00 | 0.00 | 0.00 | 65 | 1005.3 |
| 20260505061511 | 65 | 184 | 2.0 | 3.0 | 0.00 | 0.00 | 0.00 | 64 | 1005.0 |
| 20260505061009 | 66 | 168 | 3.0 | 3.0 | 0.00 | 0.00 | 0.00 | 63 | 1005.3 |
| 20260505060506 | 66 | 184 | 5.0 | 7.0 | 0.00 | 0.00 | 0.00 | 62 | 1005.0 |
| 20260505060002 | 66 | 171 | 4.0 | 6.0 | 0.00 | 0.00 | 0.00 | 62 | 1005.3 |
| 20260505055458 | 66 | 233 | 1.0 | 2.0 | 0.00 | 0.00 | 0.00 | 61 | 1005.0 |
| 20260505054955 | 66 | 256 | 4.0 | 7.0 | 0.00 | 0.00 | 0.00 | 59 | 1005.0 |
| 20260505054452 | 66 | 224 | 5.0 | 6.0 | 0.00 | 0.00 | 0.00 | 58 | 1005.0 |
| 20260505053950 | 66 | 211 | 1.0 | 3.0 | 0.00 | 0.00 | 0.00 | 58 | 1005.0 |
| 20260505053447 | 65 | 102 | 1.0 | 2.0 | 0.00 | 0.00 | 0.00 | 58 | 1005.0 |
| 20260505052944 | 65 | 148 | 3.0 | 5.0 | 0.00 | 0.00 | 0.00 | 59 | 1005.0 |
| 20260505052441 | 65 | 147 | 1.0 | 2.0 | 0.00 | 0.00 | 0.00 | 60 | 1005.3 |
| 20260505051938 | 65 | 123 | 1.0 | 1.0 | 0.00 | 0.00 | 0.00 | 60 | 1005.3 |
| 20260505051435 | 64 | 140 | 0.0 | 0.0 | 0.00 | 0.00 | 0.00 | 60 | 1005.6 |
| 20260505050933 | 64 | 107 | 1.0 | 1.0 | 0.00 | 0.00 | 0.00 | 61 | 1005.3 |
| 20260505050431 | 65 | 144 | 0.0 | 0.0 | 0.00 | 0.00 | 0.00 | 61 | 1005.3 |